Location: Le Hiès Ruisseau
(43.3000°N, 0.4500°W)
Time: 13:15:15
(UTC+00:00)

AQUARIUS - Pass Details

Date: 28 January 2023
Orbit: 647 x 649 km, 98.0° (Epoch: 19 March)

Event Time Altitude Azimuth Distance (km) Brightness Sun altitude
Rises 17:30:07 0° 165° (SSE) 2,953 7.6 -4.6°
Reaches altitude 10° 17:32:19 10° 165° (SSE) 2,048 6.8 -4.9°
Maximum altitude 17:36:48 88° 73° (ENE) 657 4.2 -5.7°
Drops below altitude 10° 17:41:18 10° 348° (NNW) 2,064 6.7 -6.5°
Sets 17:43:32 0° 348° (NNW) 2,979 7.5 -6.9°
